Вернуться в каталог

ONEWEB-0401

АктивенСвязьPO
NORAD 50481·PAYLOAD·🇬🇧 United Kingdom

Запущен Dec 27, 2021 с Baikonur Cosmodrome

Loading…

Ближайшие Пролёты (ближайшие 24 часа)

TLE

СвежийSource: CelesTrak SupGP

Эпоха: Sep 14, 2026, 09:05 UTC

1 50481C 21132N   26257.37863843 -.00003260  00000+0 -82782-2 0  2579
2 50481  87.9173 317.7268 0002144  95.5109 348.6910 13.18687945    13

Отслеживайте ONEWEB-0401 в реальном времени с AllMySat

Download on the App Store